HJS-9A

Basic Information
目录编号:
68831
目录名称:
HJS-9A
国际标识:
2026-091A
轨道中心:
EARTH
卫星名称:
HJS-9A
卫星全名:
HJS-9A
卫星状态:
在轨 (已飞行7 天)
发射日期:
2026-04-24 UTC
国别 :
中国 (CN)
星等 :
--
Orbit Information
数据来源 国际轨道数据
星历时间: 2026-05-01T14:58:25+0800
6小时前
查看轨道信息
半长轴: 6886.118km
偏心率: 0.0009048
轨道倾角: 55.002°
近地点辐角 303.075°
升交点赤经 226.601°
平近点角 56.940°
近地点: 501.75km
远地点: 514.212km
周期: 94.781分钟
每日圈数: 15.192916
Detailed Information
使用方式:
暂无
2D Orbit Map
3D Orbit Map
Orbit Altitude Analysis Chart
Orbit Inclination Analysis Chart
Orbit Comprehensive Analysis Chart
View Comprehensive Chart